owner,sensor,date,latitude,longitude,vertical_datum,wind_speed,wind_to_direction,wind_speed_of_gust,qcFlag 
ADCP,ioos:station:wmo:42362:1,2012-02-01T00:30:00Z,27.7950,-90.6480,122.0,7.4,118.0,99.0,'11111222,11111222,11144222' 
ADCP,ioos:station:wmo:42362:1,2012-02-01T01:30:00Z,27.7950,-90.6480,122.0,7.6,118.0,99.0,'11111222,11111222,11144222' 
ADCP,ioos:station:wmo:42362:1,2012-02-01T02:30:00Z,27.7950,-90.6480,122.0,8.3,119.0,99.0,'11111222,11111222,11144222' 
ADCP,ioos:station:wmo:42362:1,2012-02-01T03:30:00Z,27.7950,-90.6480,122.0,8.7,120.0,99.0,'11111222,11111222,11144222' 
ADCP,ioos:station:wmo:42362:1,2012-02-01T04:30:00Z,27.7950,-90.6480,122.0,9.5,120.0,99.0,'11111222,11111222,11144222' 
ADCP,ioos:station:wmo:42362:1,2012-02-01T05:30:00Z,27.7950,-90.6480,122.0,8.8,125.0,99.0,'11111222,11111222,11144222' 
ADCP,ioos:station:wmo:42362:1,2012-02-01T06:30:00Z,27.7950,-90.6480,122.0,8.6,120.0,99.0,'11111222,11111222,11144222' 
ADCP,ioos:station:wmo:42362:1,2012-02-01T07:30:00Z,27.7950,-90.6480,122.0,8.2,120.0,99.0,'11111222,11111222,11144222' 
ADCP,ioos:station:wmo:42362:1,2012-02-01T08:30:00Z,27.7950,-90.6480,122.0,8.2,125.0,99.0,'11111222,11111222,11144222' 
ADCP,ioos:station:wmo:42362:1,2012-02-01T09:30:00Z,27.7950,-90.6480,122.0,8.1,137.0,99.0,'11111222,11111222,11144222' 
ADCP,ioos:station:wmo:42362:1,2012-02-01T10:30:00Z,27.7950,-90.6480,122.0,7.4,137.0,99.0,'11111222,11111222,11144222' 
ADCP,ioos:station:wmo:42362:1,2012-02-01T11:30:00Z,27.7950,-90.6480,122.0,7.1,139.0,99.0,'11111222,11111222,11144222' 
ADCP,ioos:station:wmo:42362:1,2012-02-01T12:30:00Z,27.7950,-90.6480,122.0,6.6,135.0,99.0,'11111222,11111222,11144222' 
ADCP,ioos:station:wmo:42362:1,2012-02-01T13:30:00Z,27.7950,-90.6480,122.0,6.4,139.0,99.0,'11111222,11111222,11144222' 
ADCP,ioos:station:wmo:42362:1,2012-02-01T14:30:00Z,27.7950,-90.6480,122.0,6.4,143.0,99.0,'11111222,11111222,11144222' 
ADCP,ioos:station:wmo:42362:1,2012-02-01T15:30:00Z,27.7950,-90.6480,122.0,5.4,142.0,99.0,'11111222,11111222,11144222' 
ADCP,ioos:station:wmo:42362:1,2012-02-01T16:30:00Z,27.7950,-90.6480,122.0,4.2,144.0,99.0,'11111222,11111222,11144222' 
ADCP,ioos:station:wmo:42362:1,2012-02-01T17:30:00Z,27.7950,-90.6480,122.0,5.3,146.0,99.0,'11111222,11111222,11144222' 
ADCP,ioos:station:wmo:42362:1,2012-02-01T18:30:00Z,27.7950,-90.6480,122.0,4.1,164.0,99.0,'11111222,11111222,11144222' 
ADCP,ioos:station:wmo:42362:1,2012-02-01T19:30:00Z,27.7950,-90.6480,122.0,4.7,185.0,99.0,'11111222,11111222,11144222' 
ADCP,ioos:station:wmo:42362:1,2012-02-01T20:30:00Z,27.7950,-90.6480,122.0,4.3,219.0,99.0,'11111222,11111222,11144222' 
ADCP,ioos:station:wmo:42362:1,2012-02-01T21:30:00Z,27.7950,-90.6480,122.0,3.4,119.0,99.0,'11111222,11111222,11144222' 
ADCP,ioos:station:wmo:42362:1,2012-02-01T22:30:00Z,27.7950,-90.6480,122.0,6.3,117.0,99.0,'11111222,11111222,11144222' 
ADCP,ioos:station:wmo:42362:1,2012-02-01T23:30:00Z,27.7950,-90.6480,122.0,8.2,134.0,99.0,'11111222,11111222,11144222' 
ADCP,ioos:station:wmo:42362:1,2012-02-02T00:30:00Z,27.7950,-90.6480,122.0,2.6,138.0,99.0,'11111222,11111222,11144222' 
ADCP,ioos:station:wmo:42362:1,2012-02-02T01:30:00Z,27.7950,-90.6480,122.0,0.2,25.0,99.0,'11111222,11111222,11144222' 
ADCP,ioos:station:wmo:42362:1,2012-02-02T02:30:00Z,27.7950,-90.6480,122.0,1.5,86.0,99.0,'11111222,11111222,11144222' 
ADCP,ioos:station:wmo:42362:1,2012-02-02T03:30:00Z,27.7950,-90.6480,122.0,0.3,14.0,99.0,'11111222,11111222,11144222' 
ADCP,ioos:station:wmo:42362:1,2012-02-02T04:30:00Z,27.7950,-90.6480,122.0,0.4,18.0,99.0,'11111222,11111222,11144222' 
ADCP,ioos:station:wmo:42362:1,2012-02-02T05:30:00Z,27.7950,-90.6480,122.0,0.0,0.0,99.0,'11111222,11111222,11144222' 
ADCP,ioos:station:wmo:42362:1,2012-02-02T06:30:00Z,27.7950,-90.6480,122.0,1.7,108.0,99.0,'11111222,11111222,11144222' 
ADCP,ioos:station:wmo:42362:1,2012-02-02T07:30:00Z,27.7950,-90.6480,122.0,1.6,78.0,99.0,'11111222,11111222,11144222' 
ADCP,ioos:station:wmo:42362:1,2012-02-02T08:30:00Z,27.7950,-90.6480,122.0,0.8,33.0,99.0,'11111222,11111222,11144222' 
ADCP,ioos:station:wmo:42362:1,2012-02-02T09:30:00Z,27.7950,-90.6480,122.0,2.1,126.0,99.0,'11111222,11111222,11144222' 
ADCP,ioos:station:wmo:42362:1,2012-02-02T10:30:00Z,27.7950,-90.6480,122.0,1.5,107.0,99.0,'11111222,11111222,11144222' 
ADCP,ioos:station:wmo:42362:1,2012-02-02T11:30:00Z,27.7950,-90.6480,122.0,2.2,88.0,99.0,'11111222,11111222,11144222' 
ADCP,ioos:station:wmo:42362:1,2012-02-02T12:30:00Z,27.7950,-90.6480,122.0,1.9,83.0,99.0,'11111222,11111222,11144222' 
ADCP,ioos:station:wmo:42362:1,2012-02-02T13:30:00Z,27.7950,-90.6480,122.0,1.9,82.0,99.0,'11111222,11111222,11144222' 
ADCP,ioos:station:wmo:42362:1,2012-02-02T14:30:00Z,27.7950,-90.6480,122.0,2.7,85.0,99.0,'11111222,11111222,11144222' 
ADCP,ioos:station:wmo:42362:1,2012-02-02T15:30:00Z,27.7950,-90.6480,122.0,2.7,90.0,99.0,'11111222,11111222,11144222' 
ADCP,ioos:station:wmo:42362:1,2012-02-02T16:30:00Z,27.7950,-90.6480,122.0,2.8,88.0,99.0,'11111222,11111222,11144222' 
ADCP,ioos:station:wmo:42362:1,2012-02-02T17:30:00Z,27.7950,-90.6480,122.0,3.4,87.0,99.0,'11111222,11111222,11144222' 
ADCP,ioos:station:wmo:42362:1,2012-02-02T18:30:00Z,27.7950,-90.6480,122.0,4.6,96.0,99.0,'11111222,11111222,11144222' 
ADCP,ioos:station:wmo:42362:1,2012-02-02T19:30:00Z,27.7950,-90.6480,122.0,4.6,97.0,99.0,'11111222,11111222,11144222' 
ADCP,ioos:station:wmo:42362:1,2012-02-02T20:30:00Z,27.7950,-90.6480,122.0,5.0,100.0,99.0,'11111222,11111222,11144222' 
ADCP,ioos:station:wmo:42362:1,2012-02-02T21:30:00Z,27.7950,-90.6480,122.0,5.1,91.0,99.0,'11111222,11111222,11144222' 
ADCP,ioos:station:wmo:42362:1,2012-02-02T22:30:00Z,27.7950,-90.6480,122.0,5.5,93.0,99.0,'11111222,11111222,11144222' 
ADCP,ioos:station:wmo:42362:1,2012-02-02T23:30:00Z,27.7950,-90.6480,122.0,5.6,90.0,99.0,'11111222,11111222,11144222' 
ADCP,ioos:station:wmo:42362:1,2012-02-03T00:30:00Z,27.7950,-90.6480,122.0,5.9,92.0,99.0,'11111222,11111222,11144222' 
ADCP,ioos:station:wmo:42362:1,2012-02-03T01:30:00Z,27.7950,-90.6480,122.0,7.2,99.0,99.0,'11111222,11111222,11144222' 
ADCP,ioos:station:wmo:42362:1,2012-02-03T02:30:00Z,27.7950,-90.6480,122.0,8.6,100.0,99.0,'11111222,11111222,11144222' 
ADCP,ioos:station:wmo:42362:1,2012-02-03T03:30:00Z,27.7950,-90.6480,122.0,9.9,100.0,99.0,'11111222,11111222,11144222' 
ADCP,ioos:station:wmo:42362:1,2012-02-03T04:30:00Z,27.7950,-90.6480,122.0,10.7,100.0,99.0,'11111222,11111222,11144222' 
ADCP,ioos:station:wmo:42362:1,2012-02-03T05:30:00Z,27.7950,-90.6480,122.0,11.0,105.0,99.0,'11111222,11111222,11144222' 
ADCP,ioos:station:wmo:42362:1,2012-02-03T06:30:00Z,27.7950,-90.6480,122.0,11.4,105.0,99.0,'11111222,11111222,11144222' 
ADCP,ioos:station:wmo:42362:1,2012-02-03T07:30:00Z,27.7950,-90.6480,122.0,12.6,111.0,99.0,'11111222,11111222,11144222' 
ADCP,ioos:station:wmo:42362:1,2012-02-03T08:30:00Z,27.7950,-90.6480,122.0,12.6,110.0,99.0,'11111222,11111222,11144222' 
ADCP,ioos:station:wmo:42362:1,2012-02-03T09:30:00Z,27.7950,-90.6480,122.0,12.0,117.0,99.0,'11111222,11111222,11144222' 
ADCP,ioos:station:wmo:42362:1,2012-02-03T10:30:00Z,27.7950,-90.6480,122.0,12.8,116.0,99.0,'11111222,11111222,11144222' 
ADCP,ioos:station:wmo:42362:1,2012-02-03T11:30:00Z,27.7950,-90.6480,122.0,12.6,120.0,99.0,'11111222,11111222,11144222' 
ADCP,ioos:station:wmo:42362:1,2012-02-03T12:30:00Z,27.7950,-90.6480,122.0,12.6,120.0,99.0,'11111222,11111222,11144222' 
ADCP,ioos:station:wmo:42362:1,2012-02-03T13:30:00Z,27.7950,-90.6480,122.0,12.9,120.0,99.0,'11111222,11111222,11144222' 
ADCP,ioos:station:wmo:42362:1,2012-02-03T14:30:00Z,27.7950,-90.6480,122.0,12.4,120.0,99.0,'11111222,11111222,11144222' 
ADCP,ioos:station:wmo:42362:1,2012-02-03T15:30:00Z,27.7950,-90.6480,122.0,12.6,121.0,99.0,'11111222,11111222,11144222' 
ADCP,ioos:station:wmo:42362:1,2012-02-03T16:30:00Z,27.7950,-90.6480,122.0,11.1,120.0,99.0,'11111222,11111222,11144222' 
ADCP,ioos:station:wmo:42362:1,2012-02-03T17:30:00Z,27.7950,-90.6480,122.0,9.6,121.0,99.0,'11111222,11111222,11144222' 
ADCP,ioos:station:wmo:42362:1,2012-02-03T18:30:00Z,27.7950,-90.6480,122.0,8.8,120.0,99.0,'11111222,11111222,11144222' 
ADCP,ioos:station:wmo:42362:1,2012-02-03T19:30:00Z,27.7950,-90.6480,122.0,8.4,124.0,99.0,'11111222,11111222,11144222' 
ADCP,ioos:station:wmo:42362:1,2012-02-03T20:30:00Z,27.7950,-90.6480,122.0,8.2,125.0,99.0,'11111222,11111222,11144222' 
ADCP,ioos:station:wmo:42362:1,2012-02-03T21:30:00Z,27.7950,-90.6480,122.0,9.1,120.0,99.0,'11111222,11111222,11144222' 
ADCP,ioos:station:wmo:42362:1,2012-02-03T22:30:00Z,27.7950,-90.6480,122.0,9.8,120.0,99.0,'11111222,11111222,11144222' 
ADCP,ioos:station:wmo:42362:1,2012-02-03T23:30:00Z,27.7950,-90.6480,122.0,10.4,120.0,99.0,'11111222,11111222,11144222' 
ADCP,ioos:station:wmo:42362:1,2012-02-04T00:30:00Z,27.7950,-90.6480,122.0,10.7,120.0,99.0,'11111222,11111222,11144222' 
ADCP,ioos:station:wmo:42362:1,2012-02-04T01:30:00Z,27.7950,-90.6480,122.0,10.2,117.0,99.0,'11111222,11111222,11144222' 
ADCP,ioos:station:wmo:42362:1,2012-02-04T02:30:00Z,27.7950,-90.6480,122.0,10.7,110.0,99.0,'11111222,11111222,11144222' 
ADCP,ioos:station:wmo:42362:1,2012-02-04T03:30:00Z,27.7950,-90.6480,122.0,10.0,118.0,99.0,'11111222,11111222,11144222' 
ADCP,ioos:station:wmo:42362:1,2012-02-04T04:30:00Z,27.7950,-90.6480,122.0,8.8,120.0,99.0,'11111222,11111222,11144222' 
ADCP,ioos:station:wmo:42362:1,2012-02-04T05:30:00Z,27.7950,-90.6480,122.0,8.1,120.0,99.0,'11111222,11111222,11144222' 
ADCP,ioos:station:wmo:42362:1,2012-02-04T06:30:00Z,27.7950,-90.6480,122.0,7.0,120.0,99.0,'11111222,11111222,11144222' 
ADCP,ioos:station:wmo:42362:1,2012-02-04T07:30:00Z,27.7950,-90.6480,122.0,6.7,121.0,99.0,'11111222,11111222,11144222' 
ADCP,ioos:station:wmo:42362:1,2012-02-04T08:30:00Z,27.7950,-90.6480,122.0,8.3,125.0,99.0,'11111222,11111222,11144222' 
ADCP,ioos:station:wmo:42362:1,2012-02-04T09:30:00Z,27.7950,-90.6480,122.0,8.4,130.0,99.0,'11111222,11111222,11144222' 
ADCP,ioos:station:wmo:42362:1,2012-02-04T10:30:00Z,27.7950,-90.6480,122.0,8.5,134.0,99.0,'11111222,11111222,11144222' 
ADCP,ioos:station:wmo:42362:1,2012-02-04T11:30:00Z,27.7950,-90.6480,122.0,8.4,136.0,99.0,'11111222,11111222,11144222' 
ADCP,ioos:station:wmo:42362:1,2012-02-04T12:30:00Z,27.7950,-90.6480,122.0,6.9,126.0,99.0,'11111222,11111222,11144222' 
ADCP,ioos:station:wmo:42362:1,2012-02-04T13:30:00Z,27.7950,-90.6480,122.0,7.7,124.0,99.0,'11111222,11111222,11144222' 
ADCP,ioos:station:wmo:42362:1,2012-02-04T14:30:00Z,27.7950,-90.6480,122.0,6.8,125.0,99.0,'11111222,11111222,11144222' 
ADCP,ioos:station:wmo:42362:1,2012-02-04T15:30:00Z,27.7950,-90.6480,122.0,99.0,-9999.0,99.0,'11144222,99999999,11144222' 
ADCP,ioos:station:wmo:42362:1,2012-02-04T16:30:00Z,27.7950,-90.6480,122.0,99.0,-9999.0,99.0,'11144222,99999999,11144222' 
ADCP,ioos:station:wmo:42362:1,2012-02-04T17:30:00Z,27.7950,-90.6480,122.0,99.0,-9999.0,99.0,'11144222,99999999,11144222' 
ADCP,ioos:station:wmo:42362:1,2012-02-04T18:30:00Z,27.7950,-90.6480,122.0,99.0,-9999.0,99.0,'11144222,99999999,11144222' 
ADCP,ioos:station:wmo:42362:1,2012-02-04T19:30:00Z,27.7950,-90.6480,122.0,99.0,-9999.0,99.0,'11144222,99999999,11144222' 
ADCP,ioos:station:wmo:42362:1,2012-02-04T20:30:00Z,27.7950,-90.6480,122.0,99.0,-9999.0,99.0,'11144222,99999999,11144222' 
ADCP,ioos:station:wmo:42362:1,2012-02-04T21:30:00Z,27.7950,-90.6480,122.0,99.0,-9999.0,99.0,'11144222,99999999,11144222' 
ADCP,ioos:station:wmo:42362:1,2012-02-04T22:30:00Z,27.7950,-90.6480,122.0,99.0,-9999.0,99.0,'11144222,99999999,11144222' 
ADCP,ioos:station:wmo:42362:1,2012-02-04T23:30:00Z,27.7950,-90.6480,122.0,99.0,-9999.0,99.0,'11144222,99999999,11144222' 
ADCP,ioos:station:wmo:42362:1,2012-02-05T00:30:00Z,27.7950,-90.6480,122.0,99.0,-9999.0,99.0,'11144222,99999999,11144222' 
ADCP,ioos:station:wmo:42362:1,2012-02-05T01:30:00Z,27.7950,-90.6480,122.0,2.3,58.0,99.0,'11111222,11111222,11144222' 
ADCP,ioos:station:wmo:42362:1,2012-02-05T02:30:00Z,27.7950,-90.6480,122.0,2.7,54.0,99.0,'11111222,11111222,11144222' 
ADCP,ioos:station:wmo:42362:1,2012-02-05T03:30:00Z,27.7950,-90.6480,122.0,5.9,45.0,99.0,'11111222,11111222,11144222' 
ADCP,ioos:station:wmo:42362:1,2012-02-05T04:30:00Z,27.7950,-90.6480,122.0,6.5,44.0,99.0,'11111222,11111222,11144222' 
ADCP,ioos:station:wmo:42362:1,2012-02-05T05:30:00Z,27.7950,-90.6480,122.0,5.0,61.0,99.0,'11111222,11111222,11144222' 
ADCP,ioos:station:wmo:42362:1,2012-02-05T06:30:00Z,27.7950,-90.6480,122.0,3.5,76.0,99.0,'11111222,11111222,11144222' 
ADCP,ioos:station:wmo:42362:1,2012-02-05T07:30:00Z,27.7950,-90.6480,122.0,3.9,56.0,99.0,'11111222,11111222,11144222' 
ADCP,ioos:station:wmo:42362:1,2012-02-05T08:30:00Z,27.7950,-90.6480,122.0,4.0,56.0,99.0,'11111222,11111222,11144222' 
ADCP,ioos:station:wmo:42362:1,2012-02-05T09:30:00Z,27.7950,-90.6480,122.0,3.4,59.0,99.0,'11111222,11111222,11144222' 
ADCP,ioos:station:wmo:42362:1,2012-02-05T10:30:00Z,27.7950,-90.6480,122.0,4.5,47.0,99.0,'11111222,11111222,11144222' 
ADCP,ioos:station:wmo:42362:1,2012-02-05T11:30:00Z,27.7950,-90.6480,122.0,4.9,24.0,99.0,'11111222,11111222,11144222' 
ADCP,ioos:station:wmo:42362:1,2012-02-05T12:30:00Z,27.7950,-90.6480,122.0,10.2,7.0,99.0,'11111222,11111222,11144222' 
ADCP,ioos:station:wmo:42362:1,2012-02-05T13:30:00Z,27.7950,-90.6480,122.0,10.7,16.0,99.0,'11111222,11111222,11144222' 
ADCP,ioos:station:wmo:42362:1,2012-02-05T14:30:00Z,27.7950,-90.6480,122.0,10.1,20.0,99.0,'11111222,11111222,11144222' 
ADCP,ioos:station:wmo:42362:1,2012-02-05T15:30:00Z,27.7950,-90.6480,122.0,11.5,16.0,99.0,'11111222,11111222,11144222' 
ADCP,ioos:station:wmo:42362:1,2012-02-05T16:30:00Z,27.7950,-90.6480,122.0,11.1,15.0,99.0,'11111222,11111222,11144222' 
ADCP,ioos:station:wmo:42362:1,2012-02-05T17:30:00Z,27.7950,-90.6480,122.0,10.9,20.0,99.0,'11111222,11111222,11144222' 
ADCP,ioos:station:wmo:42362:1,2012-02-05T18:30:00Z,27.7950,-90.6480,122.0,10.3,24.0,99.0,'11111222,11111222,11144222' 
ADCP,ioos:station:wmo:42362:1,2012-02-05T19:30:00Z,27.7950,-90.6480,122.0,10.3,34.0,99.0,'11111222,11111222,11144222' 
ADCP,ioos:station:wmo:42362:1,2012-02-05T20:30:00Z,27.7950,-90.6480,122.0,10.2,31.0,99.0,'11111222,11111222,11144222' 
ADCP,ioos:station:wmo:42362:1,2012-02-05T21:30:00Z,27.7950,-90.6480,122.0,9.9,31.0,99.0,'11111222,11111222,11144222' 
ADCP,ioos:station:wmo:42362:1,2012-02-05T22:30:00Z,27.7950,-90.6480,122.0,10.2,20.0,99.0,'11111222,11111222,11144222' 
ADCP,ioos:station:wmo:42362:1,2012-02-05T23:30:00Z,27.7950,-90.6480,122.0,10.2,17.0,99.0,'11111222,11111222,11144222' 
ADCP,ioos:station:wmo:42362:1,2012-02-06T00:30:00Z,27.7950,-90.6480,122.0,9.8,16.0,99.0,'11111222,11111222,11144222' 
ADCP,ioos:station:wmo:42362:1,2012-02-06T01:30:00Z,27.7950,-90.6480,122.0,10.3,22.0,99.0,'11111222,11111222,11144222' 
ADCP,ioos:station:wmo:42362:1,2012-02-06T02:30:00Z,27.7950,-90.6480,122.0,11.0,23.0,99.0,'11111222,11111222,11144222' 
ADCP,ioos:station:wmo:42362:1,2012-02-06T03:30:00Z,27.7950,-90.6480,122.0,10.9,28.0,99.0,'11111222,11111222,11144222' 
ADCP,ioos:station:wmo:42362:1,2012-02-06T04:30:00Z,27.7950,-90.6480,122.0,11.4,25.0,99.0,'11111222,11111222,11144222' 
ADCP,ioos:station:wmo:42362:1,2012-02-06T05:30:00Z,27.7950,-90.6480,122.0,10.6,29.0,99.0,'11111222,11111222,11144222' 
ADCP,ioos:station:wmo:42362:1,2012-02-06T06:30:00Z,27.7950,-90.6480,122.0,9.9,28.0,99.0,'11111222,11111222,11144222' 
ADCP,ioos:station:wmo:42362:1,2012-02-06T07:30:00Z,27.7950,-90.6480,122.0,9.3,34.0,99.0,'11111222,11111222,11144222' 
ADCP,ioos:station:wmo:42362:1,2012-02-06T08:30:00Z,27.7950,-90.6480,122.0,9.0,38.0,99.0,'11111222,11111222,11144222' 
ADCP,ioos:station:wmo:42362:1,2012-02-06T09:30:00Z,27.7950,-90.6480,122.0,9.7,18.0,99.0,'11111222,11111222,11144222' 
ADCP,ioos:station:wmo:42362:1,2012-02-06T10:30:00Z,27.7950,-90.6480,122.0,10.9,16.0,99.0,'11111222,11111222,11144222' 
ADCP,ioos:station:wmo:42362:1,2012-02-06T11:30:00Z,27.7950,-90.6480,122.0,10.0,19.0,99.0,'11111222,11111222,11144222' 
ADCP,ioos:station:wmo:42362:1,2012-02-06T12:30:00Z,27.7950,-90.6480,122.0,8.8,27.0,99.0,'11111222,11111222,11144222' 
ADCP,ioos:station:wmo:42362:1,2012-02-06T13:30:00Z,27.7950,-90.6480,122.0,8.0,26.0,99.0,'11111222,11111222,11144222' 
ADCP,ioos:station:wmo:42362:1,2012-02-06T14:30:00Z,27.7950,-90.6480,122.0,8.0,22.0,99.0,'11111222,11111222,11144222' 
ADCP,ioos:station:wmo:42362:1,2012-02-06T15:30:00Z,27.7950,-90.6480,122.0,7.5,28.0,99.0,'11111222,11111222,11144222' 
ADCP,ioos:station:wmo:42362:1,2012-02-06T16:30:00Z,27.7950,-90.6480,122.0,8.1,34.0,99.0,'11111222,11111222,11144222' 
ADCP,ioos:station:wmo:42362:1,2012-02-06T17:30:00Z,27.7950,-90.6480,122.0,7.3,31.0,99.0,'11111222,11111222,11144222' 
ADCP,ioos:station:wmo:42362:1,2012-02-06T18:30:00Z,27.7950,-90.6480,122.0,6.5,27.0,99.0,'11111222,11111222,11144222' 
ADCP,ioos:station:wmo:42362:1,2012-02-06T19:30:00Z,27.7950,-90.6480,122.0,6.8,26.0,99.0,'11111222,11111222,11144222' 
ADCP,ioos:station:wmo:42362:1,2012-02-06T20:30:00Z,27.7950,-90.6480,122.0,8.1,22.0,99.0,'11111222,11111222,11144222' 
ADCP,ioos:station:wmo:42362:1,2012-02-06T21:30:00Z,27.7950,-90.6480,122.0,8.5,17.0,99.0,'11111222,11111222,11144222' 
ADCP,ioos:station:wmo:42362:1,2012-02-06T22:30:00Z,27.7950,-90.6480,122.0,8.2,11.0,99.0,'11111222,11111222,11144222' 
ADCP,ioos:station:wmo:42362:1,2012-02-06T23:30:00Z,27.7950,-90.6480,122.0,8.1,11.0,99.0,'11111222,11111222,11144222' 
ADCP,ioos:station:wmo:42362:1,2012-02-07T00:30:00Z,27.7950,-90.6480,122.0,8.5,17.0,99.0,'11111222,11111222,11144222' 
ADCP,ioos:station:wmo:42362:1,2012-02-07T01:30:00Z,27.7950,-90.6480,122.0,8.6,28.0,99.0,'11111222,11111222,11144222' 
ADCP,ioos:station:wmo:42362:1,2012-02-07T02:30:00Z,27.7950,-90.6480,122.0,7.5,36.0,99.0,'11111222,11111222,11144222' 
ADCP,ioos:station:wmo:42362:1,2012-02-07T03:30:00Z,27.7950,-90.6480,122.0,7.6,37.0,99.0,'11111222,11111222,11144222' 
ADCP,ioos:station:wmo:42362:1,2012-02-07T04:30:00Z,27.7950,-90.6480,122.0,7.5,41.0,99.0,'11111222,11111222,11144222' 
ADCP,ioos:station:wmo:42362:1,2012-02-07T05:30:00Z,27.7950,-90.6480,122.0,7.2,55.0,99.0,'11111222,11111222,11144222' 
ADCP,ioos:station:wmo:42362:1,2012-02-07T06:30:00Z,27.7950,-90.6480,122.0,6.5,51.0,99.0,'11111222,11111222,11144222' 
ADCP,ioos:station:wmo:42362:1,2012-02-07T07:30:00Z,27.7950,-90.6480,122.0,6.1,54.0,99.0,'11111222,11111222,11144222' 
ADCP,ioos:station:wmo:42362:1,2012-02-07T08:30:00Z,27.7950,-90.6480,122.0,6.2,54.0,99.0,'11111222,11111222,11144222' 
ADCP,ioos:station:wmo:42362:1,2012-02-07T09:30:00Z,27.7950,-90.6480,122.0,7.1,53.0,99.0,'11111222,11111222,11144222' 
ADCP,ioos:station:wmo:42362:1,2012-02-07T10:30:00Z,27.7950,-90.6480,122.0,6.2,48.0,99.0,'11111222,11111222,11144222' 
ADCP,ioos:station:wmo:42362:1,2012-02-07T11:30:00Z,27.7950,-90.6480,122.0,5.6,47.0,99.0,'11111222,11111222,11144222' 
ADCP,ioos:station:wmo:42362:1,2012-02-07T12:30:00Z,27.7950,-90.6480,122.0,4.9,53.0,99.0,'11111222,11111222,11144222' 
ADCP,ioos:station:wmo:42362:1,2012-02-07T13:30:00Z,27.7950,-90.6480,122.0,5.0,55.0,99.0,'11111222,11111222,11144222' 
ADCP,ioos:station:wmo:42362:1,2012-02-07T14:30:00Z,27.7950,-90.6480,122.0,5.3,44.0,99.0,'11111222,11111222,11144222' 
ADCP,ioos:station:wmo:42362:1,2012-02-07T15:30:00Z,27.7950,-90.6480,122.0,5.5,37.0,99.0,'11111222,11111222,11144222' 
ADCP,ioos:station:wmo:42362:1,2012-02-07T16:30:00Z,27.7950,-90.6480,122.0,6.4,32.0,99.0,'11111222,11111222,11144222' 
ADCP,ioos:station:wmo:42362:1,2012-02-07T17:30:00Z,27.7950,-90.6480,122.0,6.3,44.0,99.0,'11111222,11111222,11144222' 
ADCP,ioos:station:wmo:42362:1,2012-02-07T18:30:00Z,27.7950,-90.6480,122.0,6.1,52.0,99.0,'11111222,11111222,11144222' 
ADCP,ioos:station:wmo:42362:1,2012-02-07T19:30:00Z,27.7950,-90.6480,122.0,5.6,53.0,99.0,'11111222,11111222,11144222' 
ADCP,ioos:station:wmo:42362:1,2012-02-07T20:30:00Z,27.7950,-90.6480,122.0,6.0,45.0,99.0,'11111222,11111222,11144222' 
ADCP,ioos:station:wmo:42362:1,2012-02-07T21:30:00Z,27.7950,-90.6480,122.0,5.3,26.0,99.0,'11111222,11111222,11144222' 
ADCP,ioos:station:wmo:42362:1,2012-02-07T22:30:00Z,27.7950,-90.6480,122.0,5.2,16.0,99.0,'11111222,11111222,11144222' 
ADCP,ioos:station:wmo:42362:1,2012-02-07T23:30:00Z,27.7950,-90.6480,122.0,6.2,16.0,99.0,'11111222,11111222,11144222' 
ADCP,ioos:station:wmo:42362:1,2012-02-08T00:30:00Z,27.7950,-90.6480,122.0,6.5,25.0,99.0,'11111222,11111222,11144222' 
ADCP,ioos:station:wmo:42362:1,2012-02-08T01:30:00Z,27.7950,-90.6480,122.0,99.0,-9999.0,99.0,'11144222,99999999,11144222' 
ADCP,ioos:station:wmo:42362:1,2012-02-08T02:30:00Z,27.7950,-90.6480,122.0,99.0,-9999.0,99.0,'11144222,99999999,11144222' 
ADCP,ioos:station:wmo:42362:1,2012-02-08T03:30:00Z,27.7950,-90.6480,122.0,99.0,-9999.0,99.0,'11144222,99999999,11144222' 
ADCP,ioos:station:wmo:42362:1,2012-02-08T04:30:00Z,27.7950,-90.6480,122.0,99.0,-9999.0,99.0,'11144222,99999999,11144222' 
ADCP,ioos:station:wmo:42362:1,2012-02-08T05:30:00Z,27.7950,-90.6480,122.0,99.0,-9999.0,99.0,'11144222,99999999,11144222' 
ADCP,ioos:station:wmo:42362:1,2012-02-08T06:30:00Z,27.7950,-90.6480,122.0,99.0,-9999.0,99.0,'11144222,99999999,11144222' 
ADCP,ioos:station:wmo:42362:1,2012-02-08T07:30:00Z,27.7950,-90.6480,122.0,99.0,-9999.0,99.0,'11144222,99999999,11144222' 
ADCP,ioos:station:wmo:42362:1,2012-02-08T08:30:00Z,27.7950,-90.6480,122.0,99.0,-9999.0,99.0,'11144222,99999999,11144222' 
ADCP,ioos:station:wmo:42362:1,2012-02-08T09:30:00Z,27.7950,-90.6480,122.0,99.0,-9999.0,99.0,'11144222,99999999,11144222' 
ADCP,ioos:station:wmo:42362:1,2012-02-08T10:30:00Z,27.7950,-90.6480,122.0,99.0,-9999.0,99.0,'11144222,99999999,11144222' 
ADCP,ioos:station:wmo:42362:1,2012-02-08T11:30:00Z,27.7950,-90.6480,122.0,99.0,-9999.0,99.0,'11144222,99999999,11144222' 
ADCP,ioos:station:wmo:42362:1,2012-02-08T12:30:00Z,27.7950,-90.6480,122.0,99.0,-9999.0,99.0,'11144222,99999999,11144222' 
ADCP,ioos:station:wmo:42362:1,2012-02-08T13:30:00Z,27.7950,-90.6480,122.0,99.0,-9999.0,99.0,'11144222,99999999,11144222' 
ADCP,ioos:station:wmo:42362:1,2012-02-08T14:30:00Z,27.7950,-90.6480,122.0,99.0,-9999.0,99.0,'11144222,99999999,11144222' 
ADCP,ioos:station:wmo:42362:1,2012-02-08T15:30:00Z,27.7950,-90.6480,122.0,99.0,-9999.0,99.0,'11144222,99999999,11144222' 
ADCP,ioos:station:wmo:42362:1,2012-02-08T16:30:00Z,27.7950,-90.6480,122.0,99.0,-9999.0,99.0,'11144222,99999999,11144222' 
ADCP,ioos:station:wmo:42362:1,2012-02-08T17:30:00Z,27.7950,-90.6480,122.0,99.0,-9999.0,99.0,'11144222,99999999,11144222' 
ADCP,ioos:station:wmo:42362:1,2012-02-08T18:30:00Z,27.7950,-90.6480,122.0,99.0,-9999.0,99.0,'11144222,99999999,11144222' 
ADCP,ioos:station:wmo:42362:1,2012-02-08T19:30:00Z,27.7950,-90.6480,122.0,99.0,-9999.0,99.0,'11144222,99999999,11144222' 
ADCP,ioos:station:wmo:42362:1,2012-02-08T20:30:00Z,27.7950,-90.6480,122.0,99.0,-9999.0,99.0,'11144222,99999999,11144222' 
ADCP,ioos:station:wmo:42362:1,2012-02-08T21:30:00Z,27.7950,-90.6480,122.0,99.0,-9999.0,99.0,'11144222,99999999,11144222' 
ADCP,ioos:station:wmo:42362:1,2012-02-08T22:30:00Z,27.7950,-90.6480,122.0,99.0,-9999.0,99.0,'11144222,99999999,11144222' 
ADCP,ioos:station:wmo:42362:1,2012-02-08T23:30:00Z,27.7950,-90.6480,122.0,99.0,-9999.0,99.0,'11144222,99999999,11144222' 
ADCP,ioos:station:wmo:42362:1,2012-02-09T00:30:00Z,27.7950,-90.6480,122.0,99.0,-9999.0,99.0,'11144222,99999999,11144222' 
ADCP,ioos:station:wmo:42362:1,2012-02-09T01:30:00Z,27.7950,-90.6480,122.0,99.0,-9999.0,99.0,'11144222,99999999,11144222' 
ADCP,ioos:station:wmo:42362:1,2012-02-09T02:30:00Z,27.7950,-90.6480,122.0,99.0,-9999.0,99.0,'11144222,99999999,11144222' 
ADCP,ioos:station:wmo:42362:1,2012-02-09T03:30:00Z,27.7950,-90.6480,122.0,99.0,-9999.0,99.0,'11144222,99999999,11144222' 
ADCP,ioos:station:wmo:42362:1,2012-02-09T04:30:00Z,27.7950,-90.6480,122.0,99.0,-9999.0,99.0,'11144222,99999999,11144222' 
ADCP,ioos:station:wmo:42362:1,2012-02-09T05:30:00Z,27.7950,-90.6480,122.0,99.0,-9999.0,99.0,'11144222,99999999,11144222' 
ADCP,ioos:station:wmo:42362:1,2012-02-09T06:30:00Z,27.7950,-90.6480,122.0,99.0,-9999.0,99.0,'11144222,99999999,11144222' 
ADCP,ioos:station:wmo:42362:1,2012-02-09T07:30:00Z,27.7950,-90.6480,122.0,99.0,-9999.0,99.0,'11144222,99999999,11144222' 